Showing default

HAWK-2A, 47505

Orbit data source: Space-Track

HAWK-2A, 47505 is a payload satellite owned by HawkEye 360 (US) in SSO that was launched on Sun, 24 Jan 2021 UTC via an FALCON 9 launch vehicle from the Air Force Eastern Test Range (AFETR). Payloads include a variety of satellites, spacecraft, and rockets equipped with specific instruments for various scientific and technological missions. These include communications satellites like Starlink; space stations such as the ISS; scientific satellites like the Hubble; Earth observation satellites from companies like Planet Labs, Umbra, and HawkEye 360; GPS; miniature CubeSats for education and research; and military/defense satellites.

Loading next visibility...
HAWK-2A details
Identifier
47505, 2021-006CW
Orbit
SSO
Last TLE update18 hours ago
Origin
Flag of USHawkEye 360 (US)
ManufacturerUTIAS-SFL
MissionOperational Commercial Sigint
Bus & MotorDEFIANT, Unknown motor
Mass31 kg wet, 30 kg dry
Launch date (UTC)
2021-01-24 (4 years ago)
Launch vehicle
FALCON 9
Launch site
Air Force Eastern Test Range (AFETR)
Object type
Payload
Rocket body
Debris
Shape & HBRBox + 2 Pan, 1 m
Radar Cross Section0.348 m², Medium (>0.1 m² and < 1m²)

Expand to show TLE details & history

TLE from 18 hours ago
0 HAWK-2A
1 47505U 21006CW  24325.59109891  .00012753  00000-0  51602-3 0  9993
2 47505  97.3161  11.6977 0009371  92.5052 267.7259 15.24794527211800
Epoch: 2024-11-20T14:11Z
Definitive object data (Epoch: 2024-11-20T14:11:10.945Z)
Latitude-0.00004°
Longitude98.81711°
Altitude494.763 km
Speed7.617 km/s
True Right ascension00h 46m 47s
True Declination0° 00' 00"
Sunlit
Object was in full shadow at TLE epoch
Visualization TLE readout
Latitude51.39966°
Longitude90.32809°
Altitude494.616 km
Speed7.625 km/s
Apparent Right ascension20h 07m 56s
Apparent Declination13° 47' 42"
Sunlit
Object is in full shadow
Visualization observer readout
Local Sidereal Time04:47:00
Azimuth307.917° NW
Elevation-18.871°
Doppler factor1
Orbital elements
Apogee altitude494.793 km
Perigee altitude481.924 km
Semi-major axis6,866.495 km
Eccentricity0.0009371
Inclination97.3161°
RAAN11.6977°
Arg. of periapsis92.5052°
True anomaly267.61861°
Mean anomaly267.7259°
Eccentric anomaly267.67225°
Mean motion3.81453 °/min
BSTAR0.00051602
Orbital period94.38 mins
Loading maneuver chart data...

HAWK-2A Visibility forecast

Observer location: undefined°, undefined

Span
Click to sort rows by Start time (UTC) header in descending order
Start Az.
Max El. time (UTC)
Max El. Az.
Max El.
End time (UTC)
End Az.
6 mins2024-11-21 15:57:14.968Z22.328° NNE2024-11-21 16:00:14.968Z134.353° SE39.838°2024-11-21 16:03:14.968Z181.559° SSW
4 mins2024-11-22 02:34:14.968Z105.422° ESE2024-11-22 02:36:14.968Z59.672° ENE19.833°2024-11-22 02:38:14.968Z22.972° NE
|